Laconia, NH

6:27 PM EST on November 16, 2019 (GMT -0500)
Laconia Municipal

Weather History for KLCI - September, 2019

Change the Weather History Date:

Friday, September 6, 2019

  Actual Average Record
Temperature  
Mean Temperature 57 °F -  
Max Temperature 66 °F 76 °F 87 °F (1983)
Min Temperature 48 °F 52 °F 37 °F (2000)
Degree Days  
Heating Degree Days 8    
Growing Degree Days 7 (Base 50)    
Moisture  
Dew Point 49 °F    
Average Humidity 74    
Maximum Humidity 97    
Minimum Humidity 52    
Precipitation  
Precipitation 0.00 in - - ()
Sea Level Pressure  
Sea Level Pressure 30.04 in    
Wind  
Wind Speed 4 mph ()    
Max Wind Speed 14 mph    
Max Gust Speed -    
Visibility 10.0 miles    
Events      
Averages and records for this station are not official NWS values.
T = Trace of Precipitation, MM = Missing Value Source: Averaged Metar Reports

Daily Weather History Graph

Daily Weather History Graph

Search for Another Location

Airport or City:

Astronomy

Sep. 06, 2019 Rise Set
Actual Time 6:14 AM EDT 7:12 PM EDT
Civil Twilight 5:45 AM EDT 7:41 PM EDT
Nautical Twilight 5:10 AM EDT 8:16 PM EDT
Astronomical Twilight 4:34 AM EDT 8:52 PM EDT
Moon 2:34 PM EDT (9/6) 11:57 PM EDT (9/6)
Length of Visible Light 13h 56m
Length of Day
12h 57m
First Quarter, 55% of the Moon is Illuminated
Sep 6
First Quarter
Sep 14
Full
Sep 21
Last Quarter
Sep 28
New
Oct 5
First Quarter

Hourly Weather History & Observations

Time (EDT) Temp. Dew Point Humidity Pressure Visibility Wind Dir Wind Speed Gust Speed Precip Events Conditions
12:56 AM 52.0 °F 50.0 °F 93% 30.10 in 10.0 mi Calm Calm - N/A   Clear
1:56 AM 51.1 °F 48.9 °F 92% 30.09 in 10.0 mi Calm Calm - N/A   Clear
2:56 AM 48.9 °F 46.9 °F 93% 30.08 in 10.0 mi Calm Calm - N/A   Clear
3:56 AM 50.0 °F 48.0 °F 93% 30.08 in 10.0 mi Calm Calm - N/A   Clear
4:56 AM 48.9 °F 48.0 °F 97% 30.09 in 10.0 mi Calm Calm - N/A   Clear
5:56 AM 48.9 °F 48.0 °F 97% 30.10 in 10.0 mi Calm Calm - N/A   Clear
6:56 AM 48.9 °F 48.0 °F 97% 30.10 in 10.0 mi Calm Calm - N/A   Clear
7:56 AM 55.9 °F 53.1 °F 90% 30.11 in 10.0 mi Calm Calm - N/A   Clear
8:56 AM 59.0 °F 52.0 °F 78% 30.11 in 10.0 mi NNE 4.6 mph - N/A   Clear
9:56 AM 63.0 °F 52.0 °F 67% 30.10 in 10.0 mi East 9.2 mph - N/A   Clear
10:56 AM 64.0 °F 51.1 °F 63% 30.09 in 10.0 mi NE 8.1 mph - N/A   Clear
11:56 AM 66.0 °F 50.0 °F 56% 30.07 in 10.0 mi East 12.7 mph - N/A   Clear
12:56 PM 66.0 °F 51.1 °F 59% 30.05 in 10.0 mi ENE 12.7 mph - N/A   Clear
1:56 PM 66.9 °F 48.9 °F 52% 30.04 in 10.0 mi ESE 13.8 mph - N/A   Mostly Cloudy
2:56 PM 64.9 °F 48.9 °F 56% 30.02 in 10.0 mi East 12.7 mph - N/A   Partly Cloudy
3:56 PM 64.9 °F 50.0 °F 58% 29.99 in 10.0 mi ENE 13.8 mph - N/A   Clear
4:56 PM 63.0 °F 48.0 °F 58% 30.00 in 10.0 mi East 12.7 mph - N/A   Clear
5:56 PM 62.1 °F 48.0 °F 60% 29.99 in 10.0 mi East 9.2 mph - N/A   Clear
6:56 PM 60.1 °F 48.9 °F 67% 29.98 in 10.0 mi East 12.7 mph - N/A   Clear
7:56 PM 59.0 °F 48.0 °F 67% 29.97 in 10.0 mi ENE 9.2 mph - N/A   Clear
8:56 PM 57.9 °F 48.0 °F 70% 29.96 in 10.0 mi ENE 10.4 mph - N/A   Clear
9:56 PM 57.9 °F 48.0 °F 70% 29.94 in 10.0 mi ENE 4.6 mph - N/A   Clear
10:56 PM 57.0 °F 48.0 °F 72% 29.90 in 10.0 mi NE 5.8 mph - N/A   Mostly Cloudy
11:56 PM 57.0 °F 48.0 °F 72% 29.89 in 10.0 mi NE 8.1 mph - N/A   Mostly Cloudy